Regional Weather Roundup
Issued by NWS

Home | Current Version | Previous Version | Text Only | Print | Product List | Glossary Off
Versions: 1 2 3 4 5 6 7 8 9 10 11 12 13 14 15 16 17 18 19 20 21 22 23 24 25 26 27 28 29 30 31 32 33 34 35 36 37 38 39 40 41 42 43 44 45 46 47 48 49 50

525
ASUS43 KDTX 301701
RWRMI
MICHIGAN HOURLY REGIONAL WEATHER ROUNDUP
NATIONAL WEATHER SERVICE DETROIT/PONTIAC MI
100 PM EDT MON MAY 30 2016

NOTE: "FAIR" INDICATES FEW OR NO CLOUDS BELOW 12,000 FEET WITH NO
SIGNIFICANT WEATHER AND/OR OBSTRUCTION TO VISIBILITY.

MIZ047>049-052>055-059>063-066>070-074>076-081>083-301800-
SOUTHEAST LOWER MICHIGAN

CITY           SKY/WX    TMP DP  RH WIND       PRES   REMARKS
ADRIAN         PTSUNNY   80  56  43 W9        30.03S
ALMA           MOSUNNY   76  55  48 W13       30.00F
ANN ARBOR      SUNNY     79  57  46 NW8       30.01F
CARO           MOSUNNY   80  57  45 W12G18    29.98S
DETROIT CITY   MOSUNNY   78  55  44 VRB3      30.00S
DETROIT        PTSUNNY   81  58  45 NW7       30.01F
FLINT          MOSUNNY   82  55  39 W8        30.00S
GROSSE ILE     PTSUNNY   75  63  64 S7        30.00S
HILLSDALE      MOSUNNY   80  44  28 W9        30.04S
HOWELL         MOSUNNY   80  51  35 NW8       30.01F

CITY           SKY/WX    TMP DP  RH WIND       PRES   REMARKS
JACKSON        MOSUNNY   79  56  45 NW6       30.02F
LAMBERTVILLE   MOSUNNY   82  57  42 NW3       30.02S
LANSING        MOSUNNY   79  56  45 W16G23    30.02S
LAPEER         FAIR      77  53  43 W6        30.01R
MASON          PTSUNNY   78  56  47 W9        30.02S
MONROE         PTSUNNY   83  61  47 NW9G20    30.00S
MT. CLEMENS    PTSUNNY   76  61  60 SE10      29.99F
PONTIAC        PTSUNNY   79  55  43 W7        30.00S
PORT HOPE        N/A     75  56  51 NW9G18    29.96S
PORT HURON     SUNNY     77  57  50 NW7       30.00R
TRI CITIES     MOSUNNY   80  56  43 W8        29.99S
MIDLAND        PTSUNNY   78  56  47 W10       29.98S
TROY           MOSUNNY   82  51  34 W14       30.02S
SAGINAW HB     MOSUNNY   79  54  41 SW9G23    29.98F
$$
MIZ043>046-050>051-056>058-064>065-071>073-077>080-301800-
SOUTHWEST LOWER MICHIGAN

CITY           SKY/WX    TMP DP  RH WIND       PRES   REMARKS
BATTLE CREEK   MOSUNNY   78  56  46 VRB7      30.04R
BENTON HARBOR  SUNNY     74  61  63 W8        30.05R
BIG RAPIDS     MOSUNNY   76  53  44 W10G18    30.00S
COLDWATER      MOSUNNY   81  53  37 NW8       30.04R
FREMONT        FAIR      79  56  45 W12       30.01S
HOLLAND        SUNNY     78  58  49 W9        30.05R
GRAND RAPIDS   MOSUNNY   81  57  43 W13       30.02S
IONIA          PTSUNNY   78  53  42 W12       30.01S
KALAMAZOO      SUNNY     80  54  40 NW12      30.04R
LUDINGTON      SUNNY     69  60  73 SW8       30.03R
MARSHALL       MOSUNNY   81  55  41 NW6       30.03R
MOUNT PLEASANT MOSUNNY   77  56  47 W9        29.98F
MUSKEGON       MOSUNNY   77  55  46 W10       30.03R
SOUTH HAVEN    SUNNY     73  60  64 W8        30.05R
$$
MIZ016>042-301800-
NORTHERN LOWER MICHIGAN

CITY           SKY/WX    TMP DP  RH WIND       PRES   REMARKS
ALPENA         PTSUNNY   76  52  43 W12G18    29.94S
BEAVER ISLAND  SUNNY     65  56  70 SW12      29.97S
BELLAIRE       SUNNY     73  52  46 W9G18     29.98R
CADILLAC       MOSUNNY   74  55  49 NW12G20   30.00S
CHARLEVOIX     MOSUNNY   69  56  62 W16G23    30.01R
FRANKFORT      SUNNY     64  58  80 SW7       30.02R
GAYLORD        MOSUNNY   73  49  42 W17G24    29.98S
GRAYLING       MOSUNNY   76  50  40 W14G23    29.98S
HARBOR SPRINGS SUNNY     67  56  67 W10       29.97S
HOUGHTON LAKE  MOSUNNY   75  52  44 W13       29.99F
OSCODA         MOSUNNY   80  47  31 W20G28    29.94F
PELLSTON       MOSUNNY   73  54  51 W16G22    29.95S
ROGERS CITY    PTSUNNY   72  51  46 W12G23    29.94F
TRAVERSE CITY  MOSUNNY   78  49  35 W15       29.97R
$$
MIZ007>008-015-301800-
EASTERN UPPER MICHIGAN

CITY           SKY/WX    TMP DP  RH WIND       PRES   REMARKS
KINROSS          N/A     70  54  56 NW10      29.91S
MACKINAC ISLAN SUNNY     64  55  73 SW17      29.94F
NEWBERRY       PTSUNNY   70  51  50 W21       29.93S
S. S. MARIE    SUNNY     69  54  58 W12G22    29.91R
MUNISING         N/A     65  51  60 N10       29.94R
$$
MIZ004>006-011>014-085-301800-
CENTRAL UPPER MICHIGAN

CITY           SKY/WX    TMP DP  RH WIND       PRES   REMARKS
MANISTIQUE     PTSUNNY   73  52  47 NW9G17    29.95R
ESCANABA       MOSUNNY   73  48  40 W8        29.95R
MENOMINEE      SUNNY     76  49  38 N14       29.98F
SAWYER-GWINN   MOSUNNY   70  48  46 W15G21    29.96R
$$
MIZ001>003-009>011-084-301800-
WESTERN UPPER MICHIGAN

CITY           SKY/WX    TMP DP  RH WIND       PRES   REMARKS
IRON MOUNTAIN  SUNNY     74  45  35 NW17G24   29.97S
HOUGHTON       SUNNY     68  52  56 W21       29.93R
COPPER HARBOR    N/A     59  50  72 N14G22    29.90S
IRONWOOD       MOSUNNY   72  52  49 W7        29.96S
$$

ABBREVIATIONS USED IN REMARKS
   TC - TEMPERATURE IN CELSIUS
  WCI - WIND CHILL INDEX
   HX - HEAT INDEX
  VSB - VISIBILITY





USA.gov is the U.S. government's official web portal to all federal, state and local government web resources and services.